Tropical Cyclones
[Index]
Main Index Home Page Stock Weather Photos Extreme Storms Discussion Storm News and Storm Chasing Reports Tropical Cyclones / Hurricanes / Typhoons Weather Data and Links Wild Fires / Bushfires Weather Observation Techniques Weather Picture Catalogue Tornado Pictures and Reports Stock Video Footage and DVDs for sale
Season 1974-1975 Tropical Cyclone TRIXIE Track Map
Season 1974-1975 Summaries: [BoM-AU] [JTWC-AU] [JTWC-SIO] [JTWC-SPAC] [JTWC-SH]
<<- Previous TC | BoM 1974-1975 Season | Next TC ->>

click for intensity scale information  Lat/long Grid: Show Hide

 Date Labels: Show Hide

Bureau of Meteorology Tropical Cyclone Data

Name: TRIXIE
Number: 539 / 197475_10

15 Feb 1975 00:00 UTC to 22 Feb 1975 00:00 UTC

    date/time    lat    long    hPa   cat  kts
1975-02-15 00   16.7   123.6    997         25          
1975-02-15 03   16.7   123.4    994    1    30          
1975-02-15 06   16.7   123.2    993    1    30          
1975-02-15 09   16.6   123.0    993    1    30          
1975-02-15 12   16.6   122.8    994    1    30          
1975-02-15 15   16.6   122.7    997         30          
1975-02-15 18   16.7   122.6    993    1    35          
1975-02-15 21   16.7   122.4    993    1    40          
1975-02-16 00   16.7   122.2    993    1    40          
1975-02-16 03   16.8   122.0    990    1    45          
1975-02-16 06   16.9   121.8    987    1    50          
1975-02-16 09   17.0   121.6    984    2    50          
1975-02-16 12   17.1   121.5    981    2    55          
1975-02-16 15   17.2   121.4    978    2    60          
1975-02-16 18   17.3   121.3    976    2    60          
1975-02-16 21   17.4   121.2    973    2    65          
1975-02-17 00   17.6   121.1    970    3    70          
1975-02-17 03   17.8   120.9    966    3    75          
1975-02-17 06   18.0   120.7    963    3    80          
1975-02-17 09   18.3   120.5    960    3    80          
1975-02-17 12   18.6   120.4    958    3    85          
1975-02-17 15   18.8   120.1    956    3    85          
1975-02-17 18   19.0   119.7    954    4    90          
1975-02-17 21   19.2   119.3    952    4    90          
1975-02-18 00   19.4   118.8    950    4    90          
1975-02-18 03   19.6   118.4    946    4    95          
1975-02-18 06   19.8   118.0    943    4    100          
1975-02-18 09   20.0   117.6    940    4    100          
1975-02-18 12   20.2   117.2    937    4    105          
1975-02-18 15   20.4   116.9    934    4    105          
1975-02-18 18   20.6   116.5    931    4    110          
1975-02-18 21   20.8   116.2    928    5    110          
1975-02-19 00   21.0   115.9    925    5    115          
1975-02-19 01   21.2   115.5    925    5    115          
1975-02-19 03   21.4   115.5    925    5    115          
1975-02-19 03   21.5   115.4    925    5    115          
1975-02-19 06   21.8   115.2    935    4    105          
1975-02-19 09   22.0   115.0    945    4    95          
1975-02-19 10   22.0   115.0    950    4    90          
1975-02-19 11   22.1   114.9    952    4    85          
1975-02-19 12   22.3   114.9    955    4    80          
1975-02-19 15   22.5   114.8    965    3    70          
1975-02-19 18   22.9   114.7    970    3    68          
1975-02-19 21   23.3   114.7    973    2    55          
1975-02-20 00   23.7   114.7    975    2    50          
1975-02-20 03   24.1   114.7    976    2    45          
1975-02-20 06   24.4   114.6    976    2    40          
1975-02-20 09   24.7   114.5    977    2    40          
1975-02-20 12   25.0   114.5    979    2    35          
1975-02-20 15   25.3   114.6    979    2    35          
1975-02-20 18   25.7   114.7    979    2    30          
1975-02-20 21   26.0   114.9    980    2    30          
1975-02-21 00   26.2   115.2    980    2    30          
1975-02-21 03   26.3   115.5    980    2    30          
1975-02-21 06   26.4   115.9    981    2    30          
1975-02-21 09   26.5   116.3    983    2    30          
1975-02-21 12   26.6   116.7    985    2    30          
1975-02-21 15   26.7   117.1    986    1    25          
1975-02-21 18   26.8   117.5    985    2    25          
1975-02-21 21   26.9   117.9    986    1    25          
1975-02-22 00   27.0   118.3    987    1                
Winds are 10-min average.

Tropical cyclone tracks developed by Michael Bath using data from the Bureau of Meteorology and Google Maps.


[Australian Severe Weather index] [Copyright Notice] [Email Contacts] [Search This Site] [Privacy Policy]
Document: tropical_cyclone_trixie.htm Updated: 4 April 2018